Location: Heiligenberg
(48.5381°N, 7.3897°E)
Time: 21:29:52
(UTC+00:00)

Cosmos 1745 Rocket - Pass Details

Date: 26 May 2022
Orbit: 951 x 999 km, 83.0° (Epoch: 03 July)

Event Time Altitude Azimuth Distance (km) Brightness Sun altitude
Rises 00:33:12 0° 346° (NNW) 3,691 8.1 -18.8°
Reaches altitude 10° 00:35:48 10° 342° (NNW) 2,731 7.1 -18.7°
Maximum altitude 00:41:46 49° 270° (W) 1,231 4.4 -18.4°
Enters shadow 00:44:35 29° 213° (SSW) 1,682 4.7 -18.3°
